Weather History for Iliamna, AK

Change the Weather History Date:

Sunday, June 16, 2013

  Actual Average Record
Temperature  
Mean Temperature 64 °F -  
Max Temperature 81 °F 60 °F 81 °F (2013)
Min Temperature 46 °F 43 °F 36 °F (1955)
Degree Days  
Heating Degree Days 2    
Growing Degree Days 14 (Base 50)    
Moisture  
Dew Point 44 °F    
Average Humidity 51    
Maximum Humidity 80    
Minimum Humidity 20    
Precipitation  
Precipitation 0.00 in - - ()
Sea Level Pressure  
Sea Level Pressure 30.24 in    
Wind  
Wind Speed 4 mph (SSE)    
Max Wind Speed 7 mph    
Max Gust Speed -    
Visibility 10 miles    
Events      
Averages and records for this station are not official NWS values.
T = Trace of Precipitation, MM = Missing Value Source: NWS Daily Summary

Daily Weather History Graph

Daily Weather History Graph

Search for Another Location

Airport:

Trip Planner

Search our weather history database for the weather conditions in past years. The results will help you decide how hot, cold, wet, or windy it might be!

Date:

Astronomy

Jun. 16, 2013 Rise Set
Actual Time 4:58 AM AKDT 11:43 PM AKDT
Civil Twilight 3:19 AM AKDT 1:22 AM AKDT
Nautical Twilight Sun does not rise Sun does not rise
Astronomical Twilight Sun does not rise Sun does not rise
Moon 2:48 PM AKDT (6/16) 1:58 AM AKDT (6/16)
Length of Visible Light 22h 02m
Length of Day
18h 44m
Waxing Crescent, 51% of the Moon is Illuminated
Jun 16
Waxing Crescent
Jun 23
Full
Jun 29
Last Quarter
Jul 7
New
Jul 15
First Quarter

Hourly Weather History & Observations

Time (AKDT) Temp. Dew Point Humidity Pressure Visibility Wind Dir Wind Speed Gust Speed Precip Events Conditions
12:53 AM 53.1 °F 41.0 °F 64% 30.27 in 10.0 mi WSW 6.9 mph - N/A   Clear
1:53 AM 52.0 °F 41.0 °F 66% 30.27 in 10.0 mi Calm Calm - N/A   Clear
2:53 AM 51.1 °F 43.0 °F 74% 30.27 in 10.0 mi Calm Calm - N/A   Clear
3:53 AM 48.9 °F 39.9 °F 71% 30.27 in 10.0 mi West 4.6 mph - N/A   Clear
4:53 AM 48.0 °F 42.1 °F 80% 30.27 in 10.0 mi NNW 4.6 mph - N/A   Clear
5:53 AM 48.0 °F 42.1 °F 80% 30.28 in 10.0 mi NNW 4.6 mph - N/A   Clear
6:53 AM 51.1 °F 43.0 °F 74% 30.28 in 10.0 mi NNW 3.5 mph - N/A   Clear
7:53 AM 55.9 °F 42.1 °F 60% 30.29 in 10.0 mi Calm Calm - N/A   Clear
8:53 AM 57.9 °F 44.1 °F 60% 30.29 in 10.0 mi Calm Calm - N/A   Clear
9:53 AM 60.1 °F 46.9 °F 62% 30.28 in 10.0 mi East 4.6 mph - N/A   Clear
10:53 AM 62.1 °F 45.0 °F 53% 30.27 in 10.0 mi SE 4.6 mph - N/A   Clear
11:53 AM 66.0 °F 46.9 °F 50% 30.27 in 10.0 mi East 4.6 mph - N/A   Clear
12:53 PM 66.9 °F 45.0 °F 45% 30.26 in 10.0 mi ESE 4.6 mph - N/A   Clear
1:53 PM 69.1 °F 45.0 °F 42% 30.26 in 10.0 mi SE 3.5 mph - N/A   Clear
2:53 PM 73.0 °F 45.0 °F 37% 30.25 in 10.0 mi SSE 4.6 mph - N/A   Clear
3:53 PM 77.0 °F 44.1 °F 31% 30.24 in 10.0 mi SSE 5.8 mph - N/A   Clear
4:53 PM 78.1 °F 39.0 °F 25% 30.22 in 10.0 mi SSE 6.9 mph - N/A   Clear
5:53 PM 79.0 °F 37.0 °F 22% 30.21 in 10.0 mi South 5.8 mph - N/A   Clear
6:53 PM 80.1 °F 37.0 °F 21% 30.20 in 10.0 mi South 5.8 mph - N/A   Clear
7:53 PM 79.0 °F 37.9 °F 23% 30.19 in 10.0 mi SSW 3.5 mph - N/A   Clear
8:53 PM 77.0 °F 39.9 °F 26% 30.18 in 10.0 mi SW 4.6 mph - N/A   Clear
9:53 PM 71.1 °F 50.0 °F 47% 30.18 in 10.0 mi Calm Calm - N/A   Clear
10:53 PM 60.1 °F 52.0 °F 75% 30.18 in 10.0 mi Calm Calm - N/A   Clear
11:53 PM 59.0 °F 48.9 °F 69% 30.18 in 10.0 mi Calm Calm - N/A   Clear